Regional Weather Roundup
Issued by NWS

Home | Current Version | Previous Version | Graphics & Text | Print | Product List | Glossary On
Versions: 1 2 3 4 5 6 7 8 9 10 11 12 13 14 15 16 17 18 19 20 21 22 23 24 25 26 27
000
ASUS45 KBOU 160506
RWRCO

WEATHER ROUNDUP FOR COLORADO
NATIONAL WEATHER SERVICE DENVER/BOULDER CO
1100 PM MDT TUE APR 15 2014

NOTE: "FAIR" INDICATES FEW OR NO CLOUDS BELOW 12000 FEET WITH NO
SIGNIFICANT WEATHER AND/OR OBSTRUCTIONS TO VISIBILITY.

COZ001>005-013-030-031-160600-
...NORTHWEST COLORADO...

CITY           SKY/WX    TMP DP  RH WIND       PRES   REMARKS
CRAIG          CLOUDY    43  21  41 W10       29.80R
HAYDEN         CLOUDY    46  16  29 W16G26    29.81S
MEEKER         CLOUDY    50  14  23 SW13G26   29.80F
MOUNT WERNER   CLOUDY    34   7  32 W33G44    29.86F WCI  19
STEAMBOAT SPGS CLOUDY    44  15  31 W7        29.78F
WALDEN         CLOUDY    37  18  44 SW22G28   29.79F
$$

COZ006>008-011-160600-
...WEST CENTRAL VALLEYS...

CITY           SKY/WX    TMP DP  RH WIND       PRES   REMARKS
GRAND JUNCTION MOCLDY    43  33  68 NW3       29.81F
MONTROSE       MOCLDY    52  12  20 SE8       29.87F
EAGLE          CLOUDY    43  25  49 E5        29.85F
RIFLE          MOCLDY    52  20  28 SW10      29.81F
DELTA          MOCLDY    49  27  42 N8        29.85F
NUCLA            N/A     45  12  26 E9        29.92F
$$

COZ017>023-064>068-160600-
...SOUTHWEST COLORADO...

CITY           SKY/WX    TMP DP  RH WIND       PRES   REMARKS
DURANGO        PTCLDY    34   2  25 CALM      29.95F
CORTEZ         CLEAR     34  14  43 E5        29.92F WCI  30
PAGOSA SPRINGS PTCLDY    36  -1  20 CALM      29.98F
TELLURIDE      NOT AVBL
WOLF CREEK PAS PTCLDY    27  -4  26 SW26G32   30.08F WCI  11
$$

COZ009-010-012-014-032>034-037-058>063-160600-
...CENTRAL COLORADO...

CITY           SKY/WX    TMP DP  RH WIND       PRES   REMARKS
ASPEN          CLOUDY    41  17  38 SE9       29.87F
BUENA VISTA    PTCLDY    45   7  21 NW6       29.87F
COPPER MTN     SNOW      30  10  43 SW29G44   29.95F VSB 1/2 WCI  15
BERTHOUD PASS  CLOUDY    21  12  68 W43G56    29.88F WCI   0
COTTONWOOD PAS PTCLDY    39   3  22 NW25G41   29.89F
GUNNISON       MOCLDY    34  14  44 MISG      29.96F
KREMMLING      CLOUDY    43  14  31 SW9G18    29.83F
LEADVILLE      MOCLDY    33   7  33 W7        29.91F WCI  27
MONARCH PASS   PTCLDY    27   9  46 W33G39    30.11F WCI   9
SALIDA         PTCLDY    46   8  21 SW8       29.95S
SUNLIGHT       CLOUDY    32  19  59 SW3       29.95F
WILKERSON PASS CLEAR     28   7  40 SW9G24    29.91S WCI  20
$$

COZ069>075-160600-
...SAN LUIS VALLEY/SANGRE DE CRISTO MOUNTAINS...

CITY           SKY/WX    TMP DP  RH WIND       PRES   REMARKS
ALAMOSA        PTCLDY    40  10  29 SW12      29.93S
LA VETA PASS   PTCLDY    34   3  27 SW14G32   29.92F WCI  24
SAGUACHE       PTCLDY    43   9  24 NW5       29.92F
$$

COZ035-036-038>040-160600-
...NORTHERN COLORADO FRONT RANGE...

CITY           SKY/WX    TMP DP  RH WIND       PRES   REMARKS
DENVER INTL AP MOCLDY    51  14  22 W10       29.69F
DMNS CITY PARK   N/A     51  12  21 W6        29.70F
AURORA         MOCLDY    45  18  33 S10       29.71F
FRONT RANGE AP NOT AVBL
ERIE MUNI ARPT MOCLDY    51  17  26 W7        29.68F
BOULDER MUN AP MOCLDY    54  14  20 S5        29.68F
CENTENNIAL     PTCLDY    50  14  23 SW14      29.72F
BROOMFIELD     NOT AVBL
FORT COLLINS   MOCLDY    54  18  24 SW12      29.68F
LONGMONT       MOCLDY    55  15  21 W8        29.69F
$$

COZ041-046-047-076>085-087-088-160600-
...PIKES PEAK/PALMER DIVIDE AND SOUTHERN FOOTHILLS...

CITY           SKY/WX    TMP DP  RH WIND       PRES   REMARKS
COLO. SPRINGS  PTCLDY    50   8  18 E6        29.77F
A. F. ACADEMY  PTCLDY    47   8  19 N10       29.77F
ELLICOTT       NOT AVBL
FALCON         PTCLDY    46   8  21 W13       29.80S
FORT CARSON    PTCLDY    53   9  17 SW14      29.74F
LIMON          PTCLDY    35  26  69 CALM      29.71F
MONUMENT HILL  PTCLDY    37  18  44 W10       29.78S
TRINIDAD       CLEAR     47  15  27 W9        29.79S
$$

COZ042>045-048>051-090-091-160600-
...NORTHEAST COLORADO...

CITY           SKY/WX    TMP DP  RH WIND       PRES   REMARKS
GREELEY ARPT   MOCLDY    54  18  24 W5        29.66F
AKRON          CLOUDY    47  28  47 S12       29.65F
BURLINGTON     PTCLDY    44  24  45 S15       29.66F
WRAY           PTCLDY    49  26  39 SE5       29.65F
STERLING       CLOUDY    46  36  66 S7        29.62F
HOLYOKE        PTCLDY    45  32  61 S13       29.64F
FORT MORGAN    CLOUDY    48  30  50 S3        29.66F
$$

COZ086-089-092>099-160600-
...SOUTHEAST COLORADO...

CITY           SKY/WX    TMP DP  RH WIND       PRES   REMARKS
PUEBLO         CLEAR     50  19  29 NW15      29.72S
LA JUNTA       PTCLDY    55  23  28 W16       29.68F
LAMAR          MOCLDY    55  23  28 S18       29.64F
SPRINGFIELD    NOT AVBL
$$



USA.gov is the U.S. government's official web portal to all federal, state and local government web resources and services.